Regional Weather Roundup
Issued by NWS Cleveland, OH

Home | Current Version | Previous Version | Text Only | Print | Product List | Glossary Off
Versions: 1 2 3 4 5 6 7 8 9 10 11 12 13 14 15 16 17 18 19 20 21 22 23 24 25 26 27 28 29 30 31 32 33 34 35 36 37 38 39 40 41 42 43 44 45 46 47 48 49 50

000
ASUS41 KCLE 050502
RWRCLE
OHIO REGIONAL WEATHER ROUNDUP
NATIONAL WEATHER SERVICE CLEVELAND, OH
1200 AM EST MON DEC 05 2016

NOTE: "FAIR" INDICATES FEW OR NO CLOUDS BELOW 12,000 FEET WITH NO
SIGNIFICANT WEATHER AND/OR OBSTRUCTIONS TO VISIBILITY.

OHZ001>008-015>018-024>027-034-035-043-044-050600-
   NORTHWEST OHIO

CITY           SKY/WX    TMP DP  RH WIND       PRES   REMARKS
DEFIANCE       CLOUDY    35  32  88 SW8       29.85R FOG     WCI  29
FINDLAY        CLOUDY    36  32  85 SW12      29.83R FOG
TOLEDO EXPRESS CLOUDY    33  33 100 SW9       29.82S FOG     WCI  25
TOLEDO EXEC    CLOUDY    34  34 100 SW7       29.83R FOG     WCI  28
LIMA           CLOUDY    36  36 100 W20G28    29.85R
$$

OHZ009>014-019>023-028>033-038-089-050600-
   NORTHEAST OHIO

CITY           SKY/WX    TMP DP  RH WIND       PRES   REMARKS
CLE-HOPKINS    CLOUDY    38  34  85 S10       29.83F
CLE-LAKEFRONT  LGT RAIN  38  34  85 S18       29.80F
CUY CO. ARPT   NOT AVBL
LORAIN-ELYRIA  CLOUDY    35  32  88 S12       29.82S WCI  27
ASHTABULA      FLURRIES  34  33  96 S13       29.81F WCI  25
AKRON-CANTON   LGT RAIN  37  33  85 S12       29.82F FOG
WOOSTER        CLOUDY    35  33  92 SW9       29.83S FOG     WCI  28
MANSFIELD      CLOUDY    36  35  96 S10       29.81S FOG
YOUNGSTOWN     FLURRIES  34  32  92 SE3       29.82R
$$

OHZ042-051>053-060>062-070>072-077>081-050600-
  SOUTHWEST OHIO

CITY           SKY/WX    TMP DP  RH WIND       PRES   REMARKS
CINC-COVINGTON CLOUDY    42  39  89 W17       29.95R
CINC-LUNKEN    CLOUDY    45  41  86 W15G22    29.96R
HAMILTON       CLOUDY    43  39  86 W7G18     29.95R
DAYTON         CLOUDY    40  37  89 W18       29.90R
WRIGHT-PAT AFB CLOUDY    41  41 100 SW14      29.89R
DAYTON GENERAL CLOUDY    41  38  89 W14       29.90R
WILMINGTON     CLOUDY    42  40  92 W21G29    29.90R
$$

OHZ036-037-039>041-045>050-054>059-063>069-073>076-082>088-050600-
  CENTRAL AND SOUTHEAST OHIO

CITY           SKY/WX    TMP DP  RH WIND       PRES   REMARKS
COLUMBUS       CLOUDY    39  39 100 SW12      29.87R FOG
OSU AIRPORT    CLOUDY    39  39 100 S8        29.86R FOG
BOLTON FIELD   NOT AVBL
RICKENBACK AFB DRIZZLE   38  38 100 SW10      29.88R
NEWARK         CLOUDY    38  36  92 SW7       29.86R
MARION         CLOUDY    37  35  92 SW13      29.84S FOG
LANCASTER      CLOUDY    41  39  93 SW13      29.87S
ZANESVILLE     CLOUDY    39  37  92 SW7       29.86R
NEW PHILLY     NOT AVBL
$$



USA.gov is the U.S. government's official web portal to all federal, state and local government web resources and services.